Showing default

ENSO, 58470

Orbit data source: Space-Track

ENSO, 58470 is a payload satellite owned by Montpellier (FR) in SSO that was launched on Fri, 01 Dec 2023 UTC via an FALCON 9 launch vehicle from the Air Force Western Test Range (AFWTR). Payload-class satellites include a variety of spacecraft equipped with specific instruments for various scientific and technological missions. These include communications satellites like Starlink; space stations such as the ISS; scientific satellites like the Hubble; Earth observation satellites from companies like Planet Labs, Umbra, and HawkEye 360; GPS; miniature CubeSats for education and research; and military/defense satellites.

Not visible in the next 10 days
Identifier
58470, 2023-185J
Orbit
SSO
Country
Flag of FRFR
Related business
Manufacturer
Montpellier
Mission
Operational Amateur Technology
Bus & Motor
CUBESAT 1U, Unknown motor
Mass
1 kg wet, 1 kg dry
Launch date (UTC)
2023-12-01 (2 years ago)
Launch vehicle
FALCON 9
Launch site
Air Force Western Test Range (AFWTR)
Object type
Payload
Rocket body
Debris
Shape & HBR
Box + 2 Ant, 3.0 m
Radar Cross Section
0.232 m², Small (<0.1 m²)

Expand to show TLE details & history
Last TLE update: 1 day ago

TLE from 1 day ago
0 ENSO
1 58470U 23185J   25260.84302297  .00133003  00000-0  10580-2 0  9999
2 58470  97.3623 340.0248 0003083  89.2047 270.9569 15.70803905100682
Epoch: 2025-09-17T20:13Z
TLE epoch observation values (Epoch: 2025-09-17T20:13:57.184Z)
Latitude
-0.00002°
Longitude
39.52338°
Altitude
359.724 km
Speed
7.693 km/s
True Right ascension
22h 40m 05s
True Declination
0° 00' 00"
Sunlit
Object was in full shadow at epoch
Visualization orbit readout
Latitude
Unknown
Longitude
Unknown
Altitude
Unknown
Speed
Unknown
Apparent Right ascension
Unknown
Apparent Declination
Unknown
Sunlit
N/A
Visualization observer readout
Local Sidereal Time
15:22:46
Azimuth
Unknown
Elevation
Unknown
Doppler factor
Unknown
Orbital elements
Apogee altitude
355.57 km
Perigee altitude
351.419 km
Semi-major axis
6,731.632 km
Eccentricity
0.00031
Inclination
97.3623°
RAAN
340.0248°
Arg. of periapsis
89.2047°
True anomaly
270.92158°
Mean anomaly
270.9569°
Eccentric anomaly
270.93924°
Mean motion
3.92973 °/min
Orbital period
91.61 mins
BSTAR
0.001058
Loading maneuver chart data...
Computing Atmospheric mass density...
Loading historical data...
Loading historical data...
Loading historical data...
Loading historical data...
Loading historical data...
Loading historical data...
Loading historical data...

Documentation

Showing up to 5 results
|